EW7770 Weather Reports


time (UTC)temp
C
wind
direction
speed
KPH
gust
KPH
rain 1hr
cm
rain 24hr
cm
rain mn
cm
humidity
%
barometer
mb
20260507133943 11 343 3.2 6.4 0.00 2.21 0.51 56 1006.2
20260507132947 10 14 1.6 8.0 0.00 2.21 0.51 54 1006.0
20260507132044 10 345 6.4 8.0 0.00 2.21 0.51 53 1005.8
20260507131045 10 331 3.2 6.4 0.00 2.21 0.51 51 1006.0
20260507130945 9 333 6.4 9.7 0.00 2.21 0.51 52 1005.9
20260507125946 9 330 6.4 9.7 0.00 2.21 0.51 50 1005.9
20260507125044 9 334 8.0 11.3 0.00 2.21 0.51 48 1005.8
20260507121046 7 346 4.8 6.4 0.00 2.21 0.51 42 1005.7
20260507120045 7 313 4.8 6.4 0.00 2.21 0.51 39 1005.6
20260507115046 7 337 4.8 6.4 0.00 2.21 0.51 39 1006.1
20260507114044 7 337 3.2 4.8 0.00 2.21 0.51 37 1005.9
20260507113044 6 322 4.8 4.8 0.00 2.21 0.51 37 1006.2
20260507112047 6 337 4.8 6.4 0.00 2.21 0.51 37 1006.1
20260507111144 6 315 4.8 6.4 0.00 2.21 0.51 36 1005.6
20260507110146 6 315 3.2 3.2 0.00 2.21 0.51 35 1005.9
20260507105244 6 336 6.4 8.0 0.00 2.21 0.51 35 1005.9
20260507104343 6 315 4.8 4.8 0.00 2.21 0.51 33 1005.5
20260507102445 6 337 6.4 6.4 0.03 2.21 0.51 28 1005.3
20260507101446 6 315 1.6 4.8 0.03 2.21 0.51 28 1004.8
20260507100446 6 326 4.8 8.0 0.03 2.21 0.51 28 1005.0
20260507095446 6 337 3.2 4.8 0.03 2.21 0.51 28 1005.0
20260507094446 6 339 6.4 9.7 0.03 2.21 0.51 28 1004.8
20260507093446 6 337 4.8 6.4 0.00 2.18 0.48 28 1005.0
20260507092445 6 338 3.2 6.4 0.00 2.18 0.48 27 1005.4
20260507091544 6 340 6.4 8.0 0.00 2.18 0.48 27 1005.4
20260507090545 6 337 1.6 3.2 0.00 2.18 0.48 27 1005.3
20260507084546 6 327 3.2 6.4 0.00 2.21 0.48 27 1004.6
20260507082646 7 337 4.8 6.4 0.00 2.21 0.48 27 1004.6
20260507075746 7 342 3.2 6.4 0.00 2.21 0.48 26 1004.7
20260507074843 7 337 4.8 6.4 0.00 2.21 0.48 27 1004.4
20260507073845 7 330 4.8 6.4 0.00 2.21 0.48 27 1004.2
20260507073747 7 315 6.4 6.4 0.00 2.21 0.48 26 1004.2
20260507072846 7 327 6.4 6.4 0.00 2.21 0.48 27 1004.1
20260507071945 7 337 4.8 8.0 0.00 2.21 0.48 27 1004.5
20260507063946 8 337 4.8 6.4 0.46 2.21 0.48 27 1003.9
20260507062946 8 317 3.2 6.4 0.46 2.21 0.48 27 1003.8
20260507054047 8 312 4.8 6.4 0.03 1.75 0.03 27 1003.9
20260507052046 9 223 0.0 1.6 0.00 1.73 0.00 26 1003.8
20260507051045 9 229 1.6 3.2 0.00 1.73 0.00 26 1003.9
20260507050045 9 262 1.6 6.4 0.00 1.73 0.00 26 1003.9
20260507045045 9 275 4.8 12.9 0.00 1.73 0.00 27 1003.9
20260507044947 9 227 3.2 4.8 0.00 1.73 0.00 27 1004.0
20260507044044 9 217 6.4 14.5 0.00 1.73 0.00 27 1003.8
20260507043046 9 240 6.4 12.9 0.00 1.73 0.00 27 1003.7
20260507042145 9 242 6.4 9.7 0.00 1.73 0.00 27 1003.9
20260507041146 9 262 3.2 9.7 0.03 1.73 0.00 27 1004.2
20260507040230 9 230 8.0 17.7 0.03 1.73 0.00 27 1004.1
20260507035329 10 216 8.0 16.1 0.05 1.73 1.73 26 1004.3
20260507034330 10 226 8.0 19.3 0.05 1.73 1.73 27 1004.3
20260507032429 10 209 11.3 19.3 0.08 1.73 1.73 27 1004.2
20260507030430 10 221 4.8 6.4 0.10 1.70 1.70 27 1004.7
20260507025430 10 197 9.7 19.3 0.15 1.68 1.68 26 1004.6
20260507024429 10 207 4.8 11.3 0.18 1.68 1.68 27 1004.9
20260507023430 10 191 6.4 11.3 0.25 1.68 1.68 27 1005.2
20260507022528 10 165 3.2 8.0 0.33 1.65 1.65 27 1005.3
20260507021532 10 185 4.8 9.7 0.43 1.63 1.63 27 1005.4
20260507020530 10 185 4.8 8.0 0.43 1.57 1.57 27 1005.5
20260507015630 10 212 9.7 12.9 0.43 1.52 1.52 27 1005.7
20260507014630 10 196 8.0 12.9 0.48 1.50 1.50 26 1005.8
20260507013630 10 189 4.8 9.7 0.53 1.42 1.42 26 1006.0
20260507012728 10 194 8.0 9.7 0.53 1.32 1.30 26 1006.2
20260507011729 10 196 8.0 12.9 0.51 1.19 1.19 27 1006.3
20260507010733 10 199 4.8 8.0 0.53 1.14 1.14 26 1006.5
20260507004730 10 197 11.3 16.1 0.46 0.99 0.99 27 1006.8
20260507001731 10 201 8.0 14.5 0.33 0.69 0.66 28 1007.1
20260506234931 10 184 9.7 19.3 0.28 0.53 0.53 28 1007.2
20260506234030 10 189 4.8 6.4 0.18 0.43 0.43 28 1007.5
20260506232930 10 195 9.7 20.9 0.18 0.41 0.38 29 1007.5
20260506231931 10 192 9.7 12.9 0.15 0.36 0.36 28 1007.7
20260506230931 10 196 9.7 16.1 0.13 0.30 0.30 29 1007.6
20260506230030 10 185 8.0 14.5 0.13 0.28 0.28 30 1007.7
20260506224029 10 186 11.3 22.5 0.18 0.25 0.25 30 1007.9
20260506223031 10 189 8.0 11.3 0.18 0.23 0.23 30 1008.0
20260506221131 10 192 6.4 12.9 0.13 0.18 0.18 31 1008.4
20260506220132 10 197 8.0 14.5 0.10 0.13 0.13 31 1008.5
20260506215230 10 195 6.4 11.3 0.08 0.10 0.10 33 1008.9
20260506214129 10 197 6.4 12.9 0.05 0.08 0.08 33 1008.5
20260506213229 10 191 8.0 14.5 0.03 0.05 0.05 34 1008.7
20260506212231 11 175 6.4 8.0 0.03 0.05 0.05 35 1008.6
20260506211249 11 193 8.0 17.7 0.03 0.05 0.05 36 1009.0
20260506210331 11 209 8.0 14.5 0.00 0.03 0.03 37 1008.8
20260506205429 11 197 6.4 11.3 0.00 0.03 0.03 38 1009.2
20260506203530 11 208 6.4 17.7 0.00 0.03 0.03 41 1009.0
20260506202532 11 210 6.4 11.3 0.00 0.03 0.03 42 1009.1
20260506201629 11 200 6.4 11.3 0.00 0.03 0.03 42 1008.7
20260506194730 12 199 8.0 12.9 0.00 0.03 0.03 43 1008.8
20260506193730 12 192 6.4 17.7 0.00 0.03 0.03 43 1008.9
20260506192729 12 195 6.4 9.7 0.00 0.03 0.03 44 1009.0
20260506191731 12 201 6.4 9.7 0.00 0.03 0.03 44 1009.1
20260506190830 12 195 8.0 19.3 0.00 0.03 0.03 43 1009.4
20260506185830 12 203 6.4 12.9 0.00 0.03 0.03 43 1009.3
20260506184929 12 196 8.0 19.3 0.00 0.03 0.03 43 1009.1
20260506183931 12 183 4.8 11.3 0.00 0.03 0.03 44 1009.5
20260506183029 12 179 8.0 14.5 0.00 0.03 0.03 44 1009.4
20260506182030 12 206 4.8 11.3 0.00 0.03 0.03 43 1009.6
20260506181130 12 189 9.7 14.5 0.00 0.03 0.03 43 1009.8
20260506175129 12 210 8.0 22.5 0.00 0.03 0.03 43 1009.9
20260506174133 12 208 11.3 20.9 0.00 0.03 0.03 44 1010.0
20260506171130 13 213 8.0 20.9 0.00 0.03 0.03 45 1010.2
20260506170129 13 216 9.7 17.7 0.00 0.03 0.03 45 1010.3
20260506165132 13 206 6.4 9.7 0.00 0.03 0.03 44 1010.3
20260506164230 13 210 12.9 27.4 0.00 0.03 0.03 42 1010.5
20260506163230 12 199 4.8 11.3 0.00 0.03 0.03 43 1010.6
20260506162329 12 198 8.0 16.1 0.00 0.03 0.03 41 1010.8
20260506161330 12 204 6.4 11.3 0.00 0.03 0.03 42 1010.9
20260506160429 12 213 8.0 14.5 0.00 0.03 0.03 42 1010.9
20260506155431 12 208 8.0 17.7 0.00 0.03 0.03 41 1011.1
20260506154429 12 211 6.4 14.5 0.00 0.03 0.03 40 1010.6
20260506153429 12 200 8.0 14.5 0.00 0.03 0.03 40 1010.6
20260506150532 11 196 8.0 14.5 0.00 0.03 0.03 38 1010.8
20260506145531 11 194 8.0 19.3 0.00 0.03 0.03 38 1011.1
20260506144529 11 226 3.2 8.0 0.00 0.03 0.03 38 1011.4
20260506140531 12 168 4.8 8.0 0.00 0.03 0.03 42 1011.3
20260506135529 12 206 4.8 11.3 0.00 0.03 0.03 42 1011.2